Newport, Oregon, United States (97365)
Lat: 44.64N, Lon: 124.05W
Wx Zone: ORZ002
Local Info
Past Weather Observations for Today

NOTE: This archive is for the closest National Weather Service station to Newport. Information may differ from the station used for current weather conditions.

Click here for Long-term Archive

Time Weather Temperature Dewpoint Humidity Pressure Winds Precip Visibility
20:35
Mostly Cloudy
46°F / 8°C 43°F / 6°C 87% 29.68 in
(1005 mb)
NW 10.4 mph
(NW 17 kph)
- 10SM
20:15
Overcast
Drizzle
46°F / 8°C 45°F / 7°C 93% 29.68 in
(1005 mb)
NNW 13.8 mph
(NNW 22 kph)
- 7SM
19:55
Overcast
Drizzle
46°F / 8°C 45°F / 7°C 93% 29.65 in
(1004 mb)
NNW 12.7 mph
(NNW 20 kph)
0.01 in
(0.25 mm)
3SM
19:35
Overcast
Drizzle
46°F / 8°C 45°F / 7°C 93% 29.65 in
(1004 mb)
NW 10.4 mph
(NW 17 kph)
0.01 in
(0.25 mm)
3SM
19:15
Overcast
Rain
46°F / 8°C 45°F / 7°C 93% 29.65 in
(1004 mb)
NNW 16.1 mph
(NNW 26 kph)
0.01 in
(0.25 mm)
3SM
18:55
Overcast
Rain
46°F / 8°C 45°F / 7°C 93% 29.65 in
(1004 mb)
NNW 15 mph
(NNW 24 kph)
0.04 in
(1.02 mm)
3SM
18:35
Overcast
Rain
46°F / 8°C 45°F / 7°C 93% 29.65 in
(1004 mb)
NNW 15 mph
(NNW 24 kph)
0.02 in
(0.51 mm)
4SM
18:15
Overcast
Rain
46°F / 8°C 46°F / 8°C 100% 29.65 in
(1004 mb)
N 13.8 mph
(N 22 kph)
0.01 in
(0.25 mm)
4SM
17:55
Overcast
Rain
46°F / 8°C 46°F / 8°C 100% 29.65 in
(1004 mb)
NNW 12.7 mph
(NNW 20 kph)
0.05 in
(1.27 mm)
3SM
17:35
Overcast
Light Rain
46°F / 8°C 46°F / 8°C 100% 29.62 in
(1003 mb)
NNW 15 mph
(NNW 24 kph)
0.03 in
(0.76 mm)
7SM
17:15
Overcast
Rain
48°F / 9°C 46°F / 8°C 94% 29.62 in
(1003 mb)
NNW 16.1 mph
(NNW 26 kph)
0.03 in
(0.76 mm)
5SM
16:55
Overcast
Rain
50°F / 10°C 48°F / 9°C 94% 29.59 in
(1002 mb)
NNW 23 mph
(NNW 37 kph)
0.07 in
(1.78 mm)
5SM
16:35
Overcast
Light Rain
52°F / 11°C 50°F / 10°C 94% 29.59 in
(1002 mb)
NNW 17.3 mph
(NNW 28 kph)
0.06 in
(1.52 mm)
1 3/4SM
16:15
Mostly Cloudy
Fog And Mist
55°F / 13°C 54°F / 12°C 94% 29.59 in
(1002 mb)
SSW 16.1 mph
(SSW 26 kph)
- 5SM
15:55
Overcast
Fog And Mist
55°F / 13°C 54°F / 12°C 94% 29.59 in
(1002 mb)
SW 21.9 mph
(SW 35 kph)
- 5SM
15:35
Overcast
Fog And Mist
55°F / 13°C 54°F / 12°C 94% 29.59 in
(1002 mb)
SW 20.7 mph
(SW 33 kph)
- 5SM
15:15
Overcast
Rain
54°F / 12°C 54°F / 12°C 100% 29.59 in
(1002 mb)
SW 21.9 mph
(SW 35 kph)
- 3SM
14:55
Overcast
Light Rain
55°F / 13°C 54°F / 12°C 94% 29.59 in
(1002 mb)
SW 21.9 mph
(SW 35 kph)
0.05 in
(1.27 mm)
1 1/2SM
14:35
Overcast
Light Rain
55°F / 13°C 54°F / 12°C 94% 29.59 in
(1002 mb)
SW 23 mph
(SW 37 kph)
- 2 1/2SM
14:15
Mostly Cloudy
Fog And Mist
55°F / 13°C 54°F / 12°C 94% 29.59 in
(1002 mb)
SW 21.9 mph
(SW 35 kph)
- 5SM
13:55
Mostly Cloudy
Light Rain
55°F / 13°C 54°F / 12°C 94% 29.59 in
(1002 mb)
SW 26.5 mph
(SW 43 kph)
- 3SM
13:35
Mostly Cloudy
Fog And Mist
55°F / 13°C 54°F / 12°C 94% 29.59 in
(1002 mb)
SW 21.9 mph
(SW 35 kph)
- 5SM
13:15
Overcast
Fog And Mist
55°F / 13°C 55°F / 13°C 100% 29.59 in
(1002 mb)
SW 24.2 mph
(SW 39 kph)
- 4SM
12:55
Overcast
Fog And Mist
55°F / 13°C 55°F / 13°C 100% 29.59 in
(1002 mb)
SSE 26.5 mph
(SSE 43 kph)
0.01 in
(0.25 mm)
3SM
12:35
Overcast
Rain
55°F / 13°C 55°F / 13°C 100% 29.59 in
(1002 mb)
SSE 21.9 mph
(SSE 35 kph)
0.01 in
(0.25 mm)
2SM
12:15
Mostly Cloudy
Fog And Mist
55°F / 13°C 54°F / 12°C 94% 29.59 in
(1002 mb)
S 25.3 mph
(S 41 kph)
- 4SM
11:55
Overcast
Rain
55°F / 13°C 55°F / 13°C 100% 29.59 in
(1002 mb)
SSE 26.5 mph
(SSE 43 kph)
0.08 in
(2.03 mm)
2SM
11:35
Overcast
Light Rain
55°F / 13°C 55°F / 13°C 100% 29.62 in
(1003 mb)
SW 19.6 mph
(SW 32 kph)
0.07 in
(1.78 mm)
2 1/2SM
11:15
Overcast
Rain
55°F / 13°C 54°F / 12°C 94% 29.62 in
(1003 mb)
SSE 20.7 mph
(SSE 33 kph)
0.01 in
(0.25 mm)
3SM
10:55
Overcast
Light Rain
55°F / 13°C 54°F / 12°C 94% 29.65 in
(1004 mb)
S 23 mph
(S 37 kph)
- 3SM
10:35
Overcast
Rain
54°F / 12°C 54°F / 12°C 100% 29.65 in
(1004 mb)
S 21.9 mph
(S 35 kph)
- 3SM
10:15
Overcast
Light Rain
54°F / 12°C 54°F / 12°C 100% 29.65 in
(1004 mb)
SSE 23 mph
(SSE 37 kph)
- 2 1/2SM
09:55
Mostly Cloudy
Fog And Mist
55°F / 13°C 54°F / 12°C 94% 29.65 in
(1004 mb)
S 19.6 mph
(S 32 kph)
0.01 in
(0.25 mm)
5SM
09:35
Mostly Cloudy
55°F / 13°C 54°F / 12°C 94% 29.65 in
(1004 mb)
S 19.6 mph
(S 32 kph)
0.01 in
(0.25 mm)
7SM
09:15
Overcast
Light Rain
55°F / 13°C 54°F / 12°C 94% 29.65 in
(1004 mb)
SSE 25.3 mph
(SSE 41 kph)
0.01 in
(0.25 mm)
3SM
08:55
Mostly Cloudy
Light Rain
55°F / 13°C 54°F / 12°C 94% 29.65 in
(1004 mb)
S 20.7 mph
(S 33 kph)
- 4SM
08:35
Mostly Cloudy
Fog And Mist
55°F / 13°C 54°F / 12°C 94% 29.65 in
(1004 mb)
S 19.6 mph
(S 32 kph)
- 5SM
08:15
Overcast
Light Rain
55°F / 13°C 54°F / 12°C 94% 29.65 in
(1004 mb)
SSE 24.2 mph
(SSE 39 kph)
- 4SM
07:55
Overcast
Light Rain
54°F / 12°C 54°F / 12°C 100% 29.68 in
(1005 mb)
S 27.6 mph
(S 44 kph)
0.01 in
(0.25 mm)
2SM
07:35
Overcast
Light Rain
54°F / 12°C 54°F / 12°C 100% 29.68 in
(1005 mb)
S 28.8 mph
(S 46 kph)
- 3SM
07:15
Overcast
Light Rain
54°F / 12°C 54°F / 12°C 100% 29.68 in
(1005 mb)
S 23 mph
(S 37 kph)
- 4SM
06:55
Overcast
Light Rain
54°F / 12°C 54°F / 12°C 100% 29.68 in
(1005 mb)
S 26.5 mph
(S 43 kph)
0.02 in
(0.51 mm)
3SM
06:35
Overcast
Rain
54°F / 12°C 54°F / 12°C 100% 29.71 in
(1006 mb)
SSE 24.2 mph
(SSE 39 kph)
0.02 in
(0.51 mm)
2 1/2SM
06:15
Overcast
Light Rain
55°F / 13°C 54°F / 12°C 94% 29.71 in
(1006 mb)
SSE 27.6 mph
(SSE 44 kph)
- 2 1/2SM
05:55
Overcast
Light Rain
55°F / 13°C 54°F / 12°C 94% 29.71 in
(1006 mb)
SSE 28.8 mph
(SSE 46 kph)
0.02 in
(0.51 mm)
3SM
05:35
Overcast
Light Rain
55°F / 13°C 54°F / 12°C 94% 29.71 in
(1006 mb)
SSE 25.3 mph
(SSE 41 kph)
0.02 in
(0.51 mm)
3SM
05:15
Overcast
Rain
55°F / 13°C 54°F / 12°C 94% 29.74 in
(1007 mb)
SW 21.9 mph
(SW 35 kph)
0.01 in
(0.25 mm)
2SM
04:55
Overcast
Rain
55°F / 13°C 54°F / 12°C 94% 29.74 in
(1007 mb)
SSE 24.2 mph
(SSE 39 kph)
0.01 in
(0.25 mm)
2 1/2SM
04:35
Overcast
Rain
55°F / 13°C 54°F / 12°C 94% 29.74 in
(1007 mb)
SW 20.7 mph
(SW 33 kph)
0.01 in
(0.25 mm)
3SM
04:15
Overcast
Light Rain
55°F / 13°C 54°F / 12°C 94% 29.74 in
(1007 mb)
SSE 23 mph
(SSE 37 kph)
- 2 1/2SM
03:55
Overcast
Light Rain
55°F / 13°C 54°F / 12°C 94% 29.77 in
(1008 mb)
SSE 24.2 mph
(SSE 39 kph)
0.02 in
(0.51 mm)
2 1/2SM
03:35
Overcast
Light Rain
55°F / 13°C 54°F / 12°C 94% 29.77 in
(1008 mb)
SSE 24.2 mph
(SSE 39 kph)
0.01 in
(0.25 mm)
2 1/2SM
03:15
Overcast
Light Rain
55°F / 13°C 54°F / 12°C 94% 29.77 in
(1008 mb)
SSE 24.2 mph
(SSE 39 kph)
0.01 in
(0.25 mm)
2 1/2SM
02:55
Overcast
Light Rain
55°F / 13°C 54°F / 12°C 94% 29.8 in
(1009 mb)
SSE 23 mph
(SSE 37 kph)
0.03 in
(0.76 mm)
2 1/2SM
02:35
Overcast
Rain
55°F / 13°C 54°F / 12°C 94% 29.8 in
(1009 mb)
SSE 25.3 mph
(SSE 41 kph)
0.03 in
(0.76 mm)
2SM
02:15
Overcast
Heavy Rain
54°F / 12°C 54°F / 12°C 100% 29.8 in
(1009 mb)
SSE 15 mph
(SSE 24 kph)
0.01 in
(0.25 mm)
3SM
01:55
Overcast
Rain
54°F / 12°C 52°F / 11°C 94% 29.8 in
(1009 mb)
S 15 mph
(S 24 kph)
0.02 in
(0.51 mm)
4SM
01:35
Overcast
Heavy Rain
54°F / 12°C 52°F / 11°C 94% 29.8 in
(1009 mb)
S 13.8 mph
(S 22 kph)
0.01 in
(0.25 mm)
4SM
01:15
Overcast
Drizzle
54°F / 12°C 52°F / 11°C 94% 29.8 in
(1009 mb)
S 12.7 mph
(S 20 kph)
- 5SM
00:55
Overcast
Drizzle
54°F / 12°C 52°F / 11°C 94% N/A S 13.8 mph
(S 22 kph)
0.02 in
(0.51 mm)
4SM
00:35
Overcast
Rain
54°F / 12°C 52°F / 11°C 94% 29.83 in
(1010 mb)
S 17.3 mph
(S 28 kph)
0.01 in
(0.25 mm)
4SM
00:15
Overcast
Drizzle
54°F / 12°C 52°F / 11°C 94% 29.83 in
(1010 mb)
S 18.4 mph
(S 30 kph)
- 5SM
Time Weather Temperature Dewpoint Humidity Pressure Winds Precip Visibility


Weather for websites

WeatherForYou.com, LLC is not responsible for any damages or problems caused by this service. Current weather conditions are obtained from the closest station including government and personal stations which may have varying degrees of accuracy. Weather forecasts are derived from the NOAA NDFD. Like all things, this site belongs to Jesus Christ... He just trusts me to maintain it. If you have any questions or comments email webmaster@weatherforyou.com

Copyright © 2014, WeatherForYou.com LLC. All rights reserved.